Accueil
METAR-TAF:

METAR-TAF

Aéroports :

South Naknek, Alaska, États-Unis

latitude: 58-42-08N, longitude: 157-00-09W, altitude: 49 m

Observation

Le bulletin a été fait il y a 17 minutes, à 13:56 UTC
Vent 9 kt de est/nord-est
Température -14°C
Humidité 78%
Pression 1012 hPa
Visibilité: 16.1 km
Ciel couvert à une hauteur de 12000 ft

METAR: PFWS 291356Z AUTO 06009KT 10SM OVC120 M14/M17 A2988 RMK AO2 SLP165 T11441167 FZRANO

Heure: 05:13 (14:13 UTC)


TAF: absent

Observations et prévisions météorologiques de plus de 4000 aéroports (messages METAR et TAF).

Les stations disponibles sont représentées par des disques jaunes et rouges sur la carte.

Passer la souris dessus pour voir le nom de la station.

Cliquer dessus pour voir les observations et prévisions météorologiques.

Pour changer de carte: cliquez sur les boutons verts avec une croix noire pour zoomer, sur le bouton vert avec un tiret pour effectuer un zoom arrière, ou sur les flèches vertes pour les cartes adjacentes.


METAR-TAF: